Dades meteomassalio
Diari Summary for Juliol 17, 2017 Units:  Metric    English   Both
« Previous Day
Next Day »
Diari Semanal Mensual Anual Personalitzat
  Maxima: Minima: Mijana:
Temperatura: 31.8 °C 18.5 °C 26.2 °C
Rosada: 19.2 °C 14.6 °C 17.2 °C
Humitat: 83 % 39 % 60 %
Velocitat del vent: 38.9 km/h 0.0 km/h 12.4 km/h
Racha vent: 38.9 km/h - -
Vent:- - SE
Pressio: 1017.2 hPa 1012.4 hPa -
Pluja: 1.3 mm    
Historical Graphs
 
 
Tabular Data for Juliol 17, 2017
Time Temperature Dew Point Pressure Wind Wind Speed Wind Gust Humidity Rainfall Rate (Hourly) solar Conditions
00:04 25.3 °C 17.7 °C 1016.5 hPa Calm     63 % 0.0 mm 0.0 W/m2 CLR
00:09 25.1 °C 17.8 °C 1016.5 hPa East 3.7 km/h 3.7 km/h 64 % 0.0 mm 0.0 W/m2 CLR
00:14 24.9 °C 18.1 °C 1016.5 hPa Calm     66 % 0.0 mm 0.0 W/m2 CLR
00:19 24.7 °C 17.9 °C 1016.5 hPa ESE 3.7 km/h 3.7 km/h 66 % 0.0 mm 0.0 W/m2 CLR
00:24 24.7 °C 18.1 °C 1016.5 hPa ESE 3.7 km/h 3.7 km/h 67 % 0.0 mm 0.0 W/m2 CLR
00:29 24.6 °C 18.3 °C 1016.5 hPa Calm     68 % 0.0 mm 0.0 W/m2 CLR
00:34 24.4 °C 18.1 °C 1016.5 hPa Calm     68 % 0.0 mm 0.0 W/m2 CLR
00:39 24.3 °C 18.2 °C 1016.5 hPa Calm     69 % 0.0 mm 0.0 W/m2 CLR
00:44 24.1 °C 18.3 °C 1016.5 hPa Calm     70 % 0.0 mm 0.0 W/m2 CLR
00:49 24.0 °C 18.2 °C 1016.5 hPa Calm     70 % 0.0 mm 0.0 W/m2 CLR
00:54 23.9 °C 18.4 °C 1016.5 hPa Calm     71 % 0.0 mm 0.0 W/m2 CLR
00:59 23.8 °C 18.3 °C 1016.5 hPa Calm     71 % 0.0 mm 0.0 W/m2 CLR
01:04 23.8 °C 18.2 °C 1016.5 hPa Calm     71 % 0.0 mm 0.0 W/m2 CLR
01:09 23.7 °C 18.4 °C 1016.5 hPa Calm     72 % 0.0 mm 0.0 W/m2 CLR
01:14 23.7 °C 18.3 °C 1016.5 hPa Calm     72 % 0.0 mm 0.0 W/m2 CLR
01:19 23.6 °C 18.3 °C 1016.5 hPa Calm     72 % 0.0 mm 0.0 W/m2 CLR
01:24 23.6 °C 18.2 °C 1016.5 hPa ESE 5.6 km/h 5.6 km/h 72 % 0.0 mm 0.0 W/m2 CLR
01:29 23.6 °C 18.2 °C 1016.5 hPa Calm     72 % 0.0 mm 0.0 W/m2 CLR
01:34 23.5 °C 18.4 °C 1016.5 hPa Calm     73 % 0.0 mm 0.0 W/m2 CLR
01:39 23.4 °C 18.3 °C 1016.5 hPa ESE 5.6 km/h 5.6 km/h 73 % 0.0 mm 0.0 W/m2 CLR
01:44 23.4 °C 18.3 °C 1016.5 hPa ESE 1.9 km/h 1.9 km/h 73 % 0.0 mm 0.0 W/m2 CLR
01:49 23.3 °C 18.2 °C 1016.5 hPa ESE 5.6 km/h 5.6 km/h 73 % 0.0 mm 0.0 W/m2 CLR
01:54 23.3 °C 18.2 °C 1016.5 hPa Calm     73 % 0.0 mm 0.0 W/m2 CLR
01:59 23.3 °C 18.2 °C 1016.5 hPa Calm     73 % 0.0 mm 0.0 W/m2 CLR
02:04 23.2 °C 18.1 °C 1016.5 hPa Calm     73 % 0.0 mm 0.0 W/m2 CLR
02:09 23.2 °C 18.3 °C 1016.5 hPa Calm     74 % 0.0 mm 0.0 W/m2 CLR
02:14 23.2 °C 18.3 °C 1016.5 hPa Calm     74 % 0.0 mm 0.0 W/m2 CLR
02:17 23.1 °C 18.2 °C 1016.5 hPa Calm     74 % 0.0 mm 0.0 W/m2 CLR
02:22 23.1 °C 18.2 °C 1016.5 hPa Calm     74 % 0.0 mm 0.0 W/m2 CLR
02:27 23.1 °C 18.2 °C 1016.5 hPa Calm     74 % 0.0 mm 0.0 W/m2 CLR
02:32 23.1 °C 18.2 °C 1016.5 hPa Calm     74 % 0.0 mm 0.0 W/m2 CLR
02:37 23.1 °C 18.2 °C 1016.5 hPa Calm     74 % 0.0 mm 0.0 W/m2 CLR
02:42 23.1 °C 18.2 °C 1016.5 hPa Calm     74 % 0.0 mm 0.0 W/m2 CLR
02:47 23.0 °C 18.1 °C 1016.1 hPa Calm     74 % 0.0 mm 0.0 W/m2 CLR
02:52 23.0 °C 18.1 °C 1016.1 hPa Calm     74 % 0.0 mm 0.0 W/m2 CLR
02:57 22.9 °C 18.1 °C 1016.1 hPa Calm     74 % 0.0 mm 0.0 W/m2 CLR
03:02 22.9 °C 18.2 °C 1016.1 hPa Calm     75 % 0.0 mm 0.0 W/m2 CLR
03:07 22.8 °C 18.2 °C 1016.1 hPa Calm     75 % 0.0 mm 0.0 W/m2 CLR
03:12 22.8 °C 18.1 °C 1016.1 hPa Calm     75 % 0.0 mm 0.0 W/m2 CLR
03:17 22.7 °C 18.1 °C 1016.1 hPa Calm     75 % 0.0 mm 0.0 W/m2 CLR
03:22 22.6 °C 17.9 °C 1016.1 hPa Calm     75 % 0.0 mm 0.0 W/m2 CLR
03:27 22.6 °C 18.1 °C 1016.1 hPa Calm     76 % 0.0 mm 0.0 W/m2 CLR
03:28 22.6 °C 18.1 °C 1016.1 hPa Calm     76 % 0.0 mm 0.0 W/m2 CLR
03:33 22.6 °C 18.1 °C 1016.1 hPa Calm     76 % 0.0 mm 0.0 W/m2 CLR
03:38 22.6 °C 17.9 °C 1016.1 hPa Calm     75 % 0.0 mm 0.0 W/m2 CLR
03:43 22.6 °C 17.9 °C 1016.1 hPa Calm     75 % 0.0 mm 0.0 W/m2 CLR
03:48 22.5 °C 17.8 °C 1016.1 hPa Calm     75 % 0.0 mm 0.0 W/m2 CLR
03:53 22.4 °C 17.5 °C 1016.1 hPa Calm     74 % 0.0 mm 0.0 W/m2 CLR
03:58 22.2 °C 17.4 °C 1016.1 hPa Calm     74 % 0.0 mm 0.0 W/m2 CLR
04:03 22.1 °C 17.4 °C 1016.1 hPa Calm     75 % 0.0 mm 0.0 W/m2 CLR
04:08 21.9 °C 17.1 °C 1016.1 hPa Calm     74 % 0.0 mm 0.0 W/m2 CLR
04:13 21.7 °C 16.9 °C 1016.1 hPa Calm     74 % 0.0 mm 0.0 W/m2 CLR
04:18 21.6 °C 16.9 °C 1016.1 hPa Calm     75 % 0.0 mm 0.0 W/m2 CLR
04:23 21.3 °C 16.9 °C 1016.1 hPa Calm     76 % 0.0 mm 0.0 W/m2 CLR
04:28 21.2 °C 16.8 °C 1016.1 hPa Calm     76 % 0.0 mm 0.0 W/m2 CLR
04:33 21.1 °C 16.9 °C 1016.1 hPa Calm     77 % 0.0 mm 0.0 W/m2 CLR
04:38 20.9 °C 16.8 °C 1016.1 hPa Calm     77 % 0.0 mm 0.0 W/m2 CLR
04:43 20.9 °C 16.7 °C 1016.1 hPa Calm     77 % 0.0 mm 0.0 W/m2 CLR
04:48 20.7 °C 16.7 °C 1016.1 hPa Calm     78 % 0.0 mm 0.0 W/m2 CLR
04:53 20.6 °C 16.8 °C 1016.1 hPa Calm     79 % 0.0 mm 0.0 W/m2 CLR
04:58 20.4 °C 16.7 °C 1016.1 hPa Calm     79 % 0.0 mm 0.0 W/m2 CLR
05:03 20.3 °C 16.6 °C 1016.1 hPa Calm     79 % 0.0 mm 0.0 W/m2 CLR
05:08 20.2 °C 16.7 °C 1016.1 hPa Calm     80 % 0.0 mm 0.0 W/m2 CLR
05:13 20.2 °C 16.6 °C 1016.1 hPa Calm     80 % 0.0 mm 0.0 W/m2 CLR
05:18 20.1 °C 16.6 °C 1016.1 hPa Calm     80 % 0.0 mm 0.0 W/m2 CLR
05:23 19.9 °C 16.4 °C 1016.1 hPa Calm     80 % 0.0 mm 0.0 W/m2 CLR
05:28 19.9 °C 16.3 °C 1016.1 hPa Calm     80 % 0.0 mm 0.0 W/m2 CLR
05:33 19.8 °C 16.4 °C 1016.1 hPa Calm     81 % 0.0 mm 0.0 W/m2 CLR
05:38 19.7 °C 16.4 °C 1016.1 hPa Calm     81 % 0.0 mm 0.0 W/m2 CLR
05:43 19.6 °C 16.3 °C 1016.1 hPa Calm     81 % 0.0 mm 0.0 W/m2 CLR
05:48 19.5 °C 16.2 °C 1016.1 hPa Calm     81 % 0.0 mm 0.0 W/m2 CLR
05:53 19.4 °C 16.1 °C 1016.1 hPa Calm     81 % 0.0 mm 0.0 W/m2 CLR
05:59 19.3 °C 16.0 °C 1016.1 hPa Calm     81 % 0.0 mm 0.0 W/m2 CLR
06:04 19.2 °C 15.9 °C 1016.1 hPa Calm     81 % 0.0 mm 0.0 W/m2 CLR
06:06 19.2 °C 16.1 °C 1016.1 hPa Calm     82 % 0.0 mm 0.0 W/m2 CLR
06:11 19.2 °C 16.0 °C 1016.1 hPa Calm     82 % 0.0 mm 0.0 W/m2 CLR
06:16 19.1 °C 15.9 °C 1016.1 hPa Calm     82 % 0.0 mm 0.0 W/m2 CLR
06:21 19.1 °C 15.9 °C 1016.1 hPa Calm     82 % 0.0 mm 0.0 W/m2 CLR
06:26 19.0 °C 15.8 °C 1016.1 hPa Calm     82 % 0.0 mm 0.0 W/m2 CLR
06:31 18.9 °C 15.7 °C 1016.5 hPa Calm     82 % 0.0 mm 0.0 W/m2 OVC
06:36 18.9 °C 15.7 °C 1016.5 hPa Calm     82 % 0.0 mm 0.0 W/m2 OVC
06:41 18.8 °C 15.7 °C 1016.5 hPa Calm     82 % 0.0 mm 0.0 W/m2 OVC
06:46 18.7 °C 15.6 °C 1016.5 hPa Calm     82 % 0.0 mm 7.0 W/m2 BKN
06:51 18.7 °C 15.8 °C 1016.5 hPa Calm     83 % 0.0 mm 11.0 W/m2 BKN
06:56 18.6 °C 15.7 °C 1016.5 hPa Calm     83 % 0.0 mm 12.0 W/m2 BKN
07:01 18.6 °C 15.7 °C 1016.5 hPa Calm     83 % 0.0 mm 16.0 W/m2 BKN
07:06 18.5 °C 15.6 °C 1016.8 hPa Calm     83 % 0.0 mm 21.0 W/m2 BKN
07:11 18.5 °C 15.6 °C 1016.8 hPa Calm     83 % 0.0 mm 26.0 W/m2 BKN
07:16 18.5 °C 15.4 °C 1016.8 hPa Calm     82 % 0.0 mm 32.0 W/m2 BKN
07:21 18.6 °C 15.5 °C 1016.8 hPa Calm     82 % 0.0 mm 37.0 W/m2 BKN
07:26 18.7 °C 15.6 °C 1016.8 hPa Calm     82 % 0.0 mm 47.0 W/m2 SCT
07:31 18.8 °C 15.7 °C 1016.8 hPa Calm     82 % 0.0 mm 58.0 W/m2 SCT
07:36 19.0 °C 15.7 °C 1016.8 hPa Calm     81 % 0.0 mm 69.0 W/m2 FEW
07:41 19.1 °C 15.6 °C 1016.8 hPa Calm     80 % 0.0 mm 79.0 W/m2 FEW
07:46 19.3 °C 15.7 °C 1016.8 hPa Calm     80 % 0.0 mm 90.0 W/m2 FEW
07:52 19.4 °C 15.9 °C 1016.8 hPa Calm     80 % 0.0 mm 100.0 W/m2 CLR
07:57 19.7 °C 16.0 °C 1016.8 hPa Calm     79 % 0.0 mm 118.0 W/m2 CLR
08:02 20.0 °C 16.1 °C 1016.8 hPa Calm     78 % 0.0 mm 130.0 W/m2 CLR
08:07 20.3 °C 16.2 °C 1016.8 hPa Calm     77 % 0.0 mm 148.0 W/m2 CLR
08:12 20.6 °C 16.2 °C 1016.8 hPa Calm     76 % 0.0 mm 165.0 W/m2 CLR
08:17 21.0 °C 16.4 °C 1016.8 hPa Calm     75 % 0.0 mm 181.0 W/m2 CLR
08:22 21.2 °C 16.4 °C 1016.8 hPa Calm     74 % 0.0 mm 193.0 W/m2 CLR
08:27 21.4 °C 16.6 °C 1016.8 hPa Calm     74 % 0.0 mm 207.0 W/m2 CLR
08:32 21.8 °C 16.7 °C 1016.8 hPa Calm     73 % 0.0 mm 223.0 W/m2 CLR
08:37 22.2 °C 17.1 °C 1016.8 hPa Calm     73 % 0.0 mm 207.0 W/m2 CLR
08:42 22.5 °C 17.2 °C 1016.8 hPa Calm     72 % 0.0 mm 248.0 W/m2 CLR
08:47 23.0 °C 17.2 °C 1016.8 hPa Calm     70 % 0.0 mm 257.0 W/m2 CLR
08:52 23.4 °C 17.4 °C 1016.8 hPa Calm     69 % 0.0 mm 260.0 W/m2 CLR
08:57 23.9 °C 17.4 °C 1016.8 hPa Calm     67 % 0.0 mm 294.0 W/m2 CLR
09:02 24.3 °C 17.5 °C 1016.8 hPa Calm     66 % 0.0 mm 308.0 W/m2 CLR
09:07 24.7 °C 17.2 °C 1016.8 hPa Calm     63 % 0.0 mm 288.0 W/m2 CLR
09:12 24.9 °C 17.3 °C 1017.2 hPa Calm     63 % 0.0 mm 338.0 W/m2 CLR
09:17 25.2 °C 17.4 °C 1017.2 hPa Calm     62 % 0.0 mm 352.0 W/m2 CLR
09:22 25.6 °C 17.5 °C 1016.8 hPa Calm     61 % 0.0 mm 373.0 W/m2 CLR
09:27 25.9 °C 17.6 °C 1016.8 hPa Calm     60 % 0.0 mm 388.0 W/m2 CLR
09:32 26.1 °C 17.7 °C 1016.8 hPa NE 3.7 km/h 3.7 km/h 60 % 0.0 mm 362.0 W/m2 CLR
09:37 26.3 °C 17.9 °C 1016.8 hPa Calm     60 % 0.0 mm 422.0 W/m2 CLR
09:42 26.6 °C 17.9 °C 1016.8 hPa NE 1.9 km/h   59 % 0.0 mm 360.0 W/m2 CLR
09:47 26.8 °C 17.6 °C 1016.8 hPa ENE 3.7 km/h 3.7 km/h 57 % 0.0 mm 452.0 W/m2 CLR
09:52 27.1 °C 17.6 °C 1016.8 hPa NE 3.2 km/h   56 % 0.0 mm 462.0 W/m2 CLR
09:57 27.4 °C 17.6 °C 1016.8 hPa Calm     55 % 0.0 mm 480.0 W/m2 CLR
10:02 27.8 °C 17.7 °C 1016.8 hPa Calm     54 % 0.0 mm 496.0 W/m2 CLR
10:07 28.2 °C 17.4 °C 1016.8 hPa Calm     52 % 0.0 mm 376.0 W/m2 CLR
10:12 28.3 °C 17.2 °C 1016.5 hPa Calm     51 % 0.0 mm 504.0 W/m2 CLR
10:17 28.6 °C 17.2 °C 1016.5 hPa NE 7.4 km/h 7.4 km/h 50 % 0.0 mm 543.0 W/m2 CLR
10:22 28.8 °C 16.0 °C 1016.5 hPa SE 11.3 km/h 11.3 km/h 46 % 0.0 mm 557.0 W/m2 CLR
10:27 28.8 °C 16.0 °C 1016.5 hPa ESE 11.1 km/h 11.1 km/h 46 % 0.0 mm 570.0 W/m2 CLR
10:32 28.8 °C 16.4 °C 1016.5 hPa East 13.0 km/h 13.0 km/h 47 % 0.0 mm 582.0 W/m2 CLR
10:37 28.7 °C 15.6 °C 1016.5 hPa ESE 11.1 km/h 11.1 km/h 45 % 0.0 mm 591.0 W/m2 CLR
10:42 28.9 °C 16.5 °C 1016.5 hPa East 16.7 km/h 16.7 km/h 47 % 0.0 mm 612.0 W/m2 CLR
10:47 29.1 °C 16.3 °C 1016.5 hPa ESE 13.0 km/h 13.0 km/h 46 % 0.0 mm 626.0 W/m2 CLR
10:52 29.2 °C 16.4 °C 1016.5 hPa East 14.8 km/h 14.8 km/h 46 % 0.0 mm 605.0 W/m2 CLR
10:57 29.2 °C 16.4 °C 1016.5 hPa East 14.8 km/h 14.8 km/h 46 % 0.0 mm 645.0 W/m2 CLR
11:02 29.5 °C 16.3 °C 1016.1 hPa ESE 11.1 km/h 11.1 km/h 45 % 0.0 mm 650.0 W/m2 CLR
11:07 29.5 °C 16.3 °C 1016.1 hPa ESE 16.1 km/h 16.1 km/h 45 % 0.0 mm 654.0 W/m2 CLR
11:12 29.7 °C 16.9 °C 1016.1 hPa ESE 16.7 km/h 16.7 km/h 46 % 0.0 mm 675.0 W/m2 CLR
11:17 29.6 °C 16.8 °C 1016.1 hPa East 18.5 km/h 18.5 km/h 46 % 0.0 mm 687.0 W/m2 CLR
11:22 29.6 °C 17.1 °C 1016.1 hPa ESE 18.5 km/h 18.5 km/h 47 % 0.0 mm 696.0 W/m2 CLR
11:27 29.8 °C 16.9 °C 1015.8 hPa ENE 13.0 km/h 13.0 km/h 46 % 0.0 mm 707.0 W/m2 CLR
11:32 30.0 °C 17.1 °C 1015.8 hPa East 13.0 km/h 13.0 km/h 46 % 0.0 mm 719.0 W/m2 CLR
11:37 30.2 °C 16.9 °C 1015.8 hPa ENE 18.5 km/h 18.5 km/h 45 % 0.0 mm 733.0 W/m2 CLR
11:42 30.3 °C 16.7 °C 1015.5 hPa ESE 16.7 km/h 16.7 km/h 44 % 0.0 mm 742.0 W/m2 CLR
11:47 30.5 °C 17.2 °C 1015.5 hPa ENE 22.5 km/h 22.5 km/h 45 % 0.0 mm 751.0 W/m2 CLR
11:52 30.7 °C 16.7 °C 1015.5 hPa East 25.9 km/h 25.9 km/h 43 % 0.0 mm 765.0 W/m2 CLR
11:57 31.1 °C 15.9 °C 1015.5 hPa ESE 20.4 km/h 20.4 km/h 40 % 0.0 mm 777.0 W/m2 CLR
11:58 31.1 °C 16.3 °C 1015.5 hPa ESE 20.4 km/h 20.4 km/h 41 % 0.0 mm 777.0 W/m2 CLR
12:03 31.4 °C 16.2 °C 1015.5 hPa East 25.9 km/h 25.9 km/h 40 % 0.0 mm 779.0 W/m2 CLR
12:08 31.4 °C 16.2 °C 1015.5 hPa ESE 31.5 km/h 31.5 km/h 40 % 0.0 mm 793.0 W/m2 CLR
12:13 31.3 °C 15.7 °C 1015.5 hPa ESE 31.5 km/h 31.5 km/h 39 % 0.0 mm 805.0 W/m2 CLR
12:18 31.4 °C 15.8 °C 1015.5 hPa ESE 27.8 km/h 27.8 km/h 39 % 0.0 mm 812.0 W/m2 CLR
12:23 31.6 °C 17.1 °C 1015.5 hPa ESE 16.7 km/h 16.7 km/h 42 % 0.0 mm 810.0 W/m2 CLR
12:28 31.6 °C 17.1 °C 1015.5 hPa SE 24.1 km/h 24.1 km/h 42 % 0.0 mm 824.0 W/m2 CLR
12:33 31.3 °C 17.3 °C 1015.5 hPa ESE 29.6 km/h 29.6 km/h 43 % 0.0 mm 828.0 W/m2 CLR
12:38 31.5 °C 16.7 °C 1015.5 hPa ESE 19.3 km/h 19.3 km/h 41 % 0.0 mm 842.0 W/m2 CLR
12:43 31.7 °C 16.4 °C 1015.5 hPa ESE 27.8 km/h 27.8 km/h 40 % 0.0 mm 849.0 W/m2 CLR
12:44 31.7 °C 16.1 °C 1015.5 hPa ESE 27.8 km/h 27.8 km/h 39 % 0.0 mm 854.0 W/m2 CLR
12:49 31.7 °C 16.8 °C 1015.5 hPa East 20.4 km/h 20.4 km/h 41 % 0.0 mm 865.0 W/m2 CLR
12:54 31.8 °C 17.3 °C 1015.5 hPa SE 29.6 km/h 29.6 km/h 42 % 0.0 mm 882.0 W/m2 CLR
12:59 31.4 °C 18.1 °C 1015.1 hPa SE 24.1 km/h 24.1 km/h 45 % 0.0 mm 914.0 W/m2 CLR
13:04 31.5 °C 18.1 °C 1015.5 hPa SE 33.8 km/h 33.8 km/h 45 % 0.0 mm 946.0 W/m2 CLR
13:09 31.6 °C 18.2 °C 1015.1 hPa ESE 22.2 km/h 22.2 km/h 45 % 0.0 mm 983.0 W/m2 CLR
13:14 31.4 °C 18.1 °C 1015.5 hPa East 25.9 km/h 25.9 km/h 45 % 0.0 mm 976.0 W/m2 CLR
13:19 31.3 °C 18.3 °C 1015.1 hPa ESE 29.6 km/h 29.6 km/h 46 % 0.0 mm 986.0 W/m2 CLR
13:24 31.3 °C 18.3 °C 1015.5 hPa SE 31.5 km/h 31.5 km/h 46 % 0.0 mm 940.0 W/m2 CLR
13:29 31.4 °C 17.7 °C 1015.1 hPa SSE 31.5 km/h 31.5 km/h 44 % 0.0 mm 930.0 W/m2 CLR
13:34 31.7 °C 17.6 °C 1015.5 hPa SE 31.5 km/h 31.5 km/h 43 % 0.0 mm 877.0 W/m2 CLR
13:39 31.7 °C 17.9 °C 1015.5 hPa SE 25.9 km/h 25.9 km/h 44 % 0.0 mm 918.0 W/m2 CLR
13:44 31.5 °C 17.8 °C 1015.1 hPa ESE 33.3 km/h 33.3 km/h 44 % 0.0 mm 904.0 W/m2 CLR
13:49 31.3 °C 17.6 °C 1015.1 hPa SSE 37.0 km/h 37.0 km/h 44 % 0.0 mm 715.0 W/m2 CLR
13:54 31.2 °C 17.9 °C 1015.1 hPa ESE 24.1 km/h 24.1 km/h 45 % 0.0 mm 793.0 W/m2 CLR
13:59 31.3 °C 17.6 °C 1015.1 hPa SE 29.6 km/h 29.6 km/h 44 % 0.0 mm 926.0 W/m2 CLR
14:04 31.4 °C 18.1 °C 1014.8 hPa SSE 25.9 km/h 25.9 km/h 45 % 0.0 mm 972.0 W/m2 CLR
14:09 31.7 °C 18.6 °C 1014.8 hPa SE 24.1 km/h 24.1 km/h 46 % 0.0 mm 997.0 W/m2 CLR
14:14 31.6 °C 18.9 °C 1014.8 hPa SSE 27.8 km/h 27.8 km/h 47 % 0.0 mm 1014.0 W/m2 CLR
14:19 31.5 °C 18.5 °C 1015.1 hPa SE 31.5 km/h 31.5 km/h 46 % 0.0 mm 925.0 W/m2 CLR
14:24 31.4 °C 19.1 °C 1015.1 hPa ESE 29.0 km/h 29.0 km/h 48 % 0.0 mm 840.0 W/m2 CLR
14:29 31.2 °C 18.8 °C 1014.8 hPa ESE 24.1 km/h 24.1 km/h 48 % 0.0 mm 1037.0 W/m2 CLR
14:34 31.3 °C 18.7 °C 1014.8 hPa ESE 31.5 km/h 31.5 km/h 47 % 0.0 mm 1035.0 W/m2 CLR
14:39 31.0 °C 18.7 °C 1014.8 hPa ESE 25.9 km/h 25.9 km/h 48 % 0.0 mm 1011.0 W/m2 CLR
14:44 31.1 °C 19.1 °C 1014.8 hPa SE 29.6 km/h 29.6 km/h 49 % 0.0 mm 940.0 W/m2 CLR
14:49 31.0 °C 18.7 °C 1014.8 hPa SE 27.8 km/h 27.8 km/h 48 % 0.0 mm 928.0 W/m2 CLR
14:59 31.0 °C 18.7 °C 1014.4 hPa East 29.6 km/h 29.6 km/h 48 % 0.0 mm 954.0 W/m2 CLR
15:04 31.0 °C 18.7 °C 1014.8 hPa ESE 27.8 km/h 27.8 km/h 48 % 0.0 mm 812.0 W/m2 CLR
15:09 30.8 °C 18.8 °C 1014.4 hPa SE 27.8 km/h 27.8 km/h 49 % 0.0 mm 916.0 W/m2 CLR
15:14 31.1 °C 18.8 °C 1014.4 hPa ESE 31.5 km/h 31.5 km/h 48 % 0.0 mm 916.0 W/m2 CLR
15:19 30.9 °C 18.3 °C 1014.4 hPa ESE 29.6 km/h 29.6 km/h 47 % 0.0 mm 912.0 W/m2 CLR
15:24 31.0 °C 18.4 °C 1014.1 hPa SE 35.2 km/h 35.2 km/h 47 % 0.0 mm 886.0 W/m2 CLR
15:29 30.9 °C 18.3 °C 1014.4 hPa ESE 38.9 km/h 38.9 km/h 47 % 0.0 mm 888.0 W/m2 CLR
15:34 30.9 °C 18.6 °C 1014.1 hPa ESE 30.6 km/h 30.6 km/h 48 % 0.0 mm 879.0 W/m2 CLR
15:39 31.3 °C 18.6 °C 1014.4 hPa South 27.8 km/h 27.8 km/h 47 % 0.0 mm 889.0 W/m2 CLR
15:44 31.3 °C 18.3 °C 1014.1 hPa ESE 31.5 km/h 31.5 km/h 46 % 0.0 mm 316.0 W/m2 CLR
15:49 30.7 °C 18.4 °C 1014.1 hPa SE 29.6 km/h 29.6 km/h 48 % 0.0 mm 388.0 W/m2 CLR
15:54 30.8 °C 18.5 °C 1014.1 hPa ESE 33.3 km/h 33.3 km/h 48 % 0.0 mm 561.0 W/m2 CLR
15:59 30.7 °C 18.4 °C 1014.1 hPa ESE 29.0 km/h 29.0 km/h 48 % 0.0 mm 411.0 W/m2 CLR
16:04 30.5 °C 18.2 °C 1014.4 hPa ESE 29.6 km/h 29.6 km/h 48 % 0.0 mm 462.0 W/m2 CLR
16:09 30.4 °C 18.5 °C 1014.1 hPa SE 31.5 km/h 31.5 km/h 49 % 0.0 mm 861.0 W/m2 CLR
16:14 30.8 °C 18.5 °C 1014.1 hPa East 22.2 km/h 22.2 km/h 48 % 0.0 mm 826.0 W/m2 CLR
16:19 31.1 °C 18.4 °C 1014.1 hPa ESE 24.1 km/h 24.1 km/h 47 % 0.0 mm 793.0 W/m2 CLR
16:24 30.9 °C 18.3 °C 1014.1 hPa ESE 29.6 km/h 29.6 km/h 47 % 0.0 mm 772.0 W/m2 CLR
16:29 31.0 °C 18.4 °C 1014.1 hPa ESE 29.6 km/h 29.6 km/h 47 % 0.0 mm 733.0 W/m2 CLR
16:34 31.1 °C 18.4 °C 1013.8 hPa SE 27.8 km/h 27.8 km/h 47 % 0.0 mm 749.0 W/m2 CLR
16:39 30.8 °C 18.9 °C 1013.8 hPa East 31.5 km/h 31.5 km/h 49 % 0.0 mm 740.0 W/m2 CLR
16:44 31.0 °C 18.7 °C 1013.4 hPa East 27.8 km/h 27.8 km/h 48 % 0.0 mm 735.0 W/m2 CLR
16:49 31.2 °C 18.2 °C 1013.8 hPa SSE 30.6 km/h 30.6 km/h 46 % 0.0 mm 728.0 W/m2 CLR
16:54 31.4 °C 18.4 °C 1013.8 hPa SE 25.7 km/h 25.7 km/h 46 % 0.0 mm 729.0 W/m2 CLR
16:59 31.5 °C 18.1 °C 1013.8 hPa ESE 29.6 km/h 29.6 km/h 45 % 0.0 mm 687.0 W/m2 CLR
17:04 31.3 °C 17.6 °C 1013.8 hPa ESE 35.2 km/h 35.2 km/h 44 % 0.0 mm 691.0 W/m2 CLR
17:09 31.6 °C 17.4 °C 1013.4 hPa SSE 25.9 km/h 25.9 km/h 43 % 0.0 mm 538.0 W/m2 CLR
17:14 31.6 °C 18.2 °C 1013.4 hPa SE 25.9 km/h 25.9 km/h 45 % 0.0 mm 640.0 W/m2 CLR
17:19 31.6 °C 18.2 °C 1013.4 hPa SE 30.6 km/h 30.6 km/h 45 % 0.0 mm 645.0 W/m2 CLR
17:24 31.5 °C 18.1 °C 1013.4 hPa East 24.1 km/h 24.1 km/h 45 % 0.0 mm 638.0 W/m2 CLR
17:29 31.5 °C 17.8 °C 1013.4 hPa SE 31.5 km/h 31.5 km/h 44 % 0.0 mm 645.0 W/m2 CLR
17:34 31.6 °C 18.6 °C 1013.1 hPa ESE 25.9 km/h 25.9 km/h 46 % 0.0 mm 631.0 W/m2 CLR
17:39 31.6 °C 17.1 °C 1013.1 hPa SSE 29.6 km/h 29.6 km/h 42 % 0.0 mm 626.0 W/m2 CLR
17:44 31.6 °C 17.5 °C 1013.1 hPa SE 25.9 km/h 25.9 km/h 43 % 0.0 mm 483.0 W/m2 CLR
17:49 31.3 °C 17.2 °C 1013.1 hPa SE 25.9 km/h 26.4 km/h 43 % 0.0 mm 311.0 W/m2 CLR
17:54 30.9 °C 16.9 °C 1013.1 hPa SE 22.2 km/h 22.2 km/h 43 % 0.0 mm 343.0 W/m2 CLR
17:59 30.9 °C 16.8 °C 1013.1 hPa SE 27.8 km/h 27.8 km/h 43 % 0.0 mm 294.0 W/m2 CLR
18:04 31.0 °C 17.3 °C 1013.1 hPa SE 20.9 km/h 20.9 km/h 44 % 0.0 mm 271.0 W/m2 CLR
18:09 31.0 °C 17.3 °C 1013.1 hPa SE 16.1 km/h 16.1 km/h 44 % 0.0 mm 272.0 W/m2 CLR
18:15 30.7 °C 17.1 °C 1013.1 hPa SE 31.5 km/h 31.5 km/h 44 % 0.0 mm 232.0 W/m2 CLR
18:20 30.4 °C 17.1 °C 1013.1 hPa SSE 29.6 km/h 29.6 km/h 45 % 0.0 mm 221.0 W/m2 CLR
18:25 30.3 °C 17.7 °C 1013.1 hPa ESE 22.2 km/h 22.2 km/h 47 % 0.0 mm 220.0 W/m2 CLR
18:30 29.8 °C 17.9 °C 1012.8 hPa ESE 27.8 km/h 27.8 km/h 49 % 0.0 mm 234.0 W/m2 CLR
18:35 29.7 °C 18.1 °C 1012.8 hPa SE 18.5 km/h 18.5 km/h 50 % 0.0 mm 271.0 W/m2 CLR
18:40 29.5 °C 18.0 °C 1012.8 hPa SE 27.8 km/h 27.8 km/h 50 % 0.0 mm 341.0 W/m2 CLR
18:45 29.3 °C 18.1 °C 1012.4 hPa SE 27.8 km/h 27.8 km/h 51 % 0.0 mm 292.0 W/m2 CLR
18:50 29.2 °C 18.1 °C 1012.8 hPa ESE 16.7 km/h 16.7 km/h 51 % 0.0 mm 250.0 W/m2 CLR
18:55 29.1 °C 17.9 °C 1012.8 hPa SE 27.8 km/h 27.8 km/h 51 % 0.0 mm 179.0 W/m2 CLR
19:00 28.9 °C 18.1 °C 1012.8 hPa SE 22.2 km/h 22.2 km/h 52 % 0.0 mm 132.0 W/m2 CLR
19:05 28.7 °C 17.9 °C 1013.1 hPa ESE 18.5 km/h 18.5 km/h 52 % 0.0 mm 113.0 W/m2 CLR
19:10 28.6 °C 17.7 °C 1013.1 hPa SE 27.8 km/h 27.8 km/h 52 % 0.0 mm 100.0 W/m2 CLR
19:15 28.4 °C 17.6 °C 1013.1 hPa SE 24.1 km/h 24.1 km/h 52 % 0.0 mm 97.0 W/m2 CLR
19:20 28.3 °C 17.8 °C 1013.1 hPa SE 22.2 km/h 22.2 km/h 53 % 0.0 mm 95.0 W/m2 CLR
19:25 28.2 °C 17.7 °C 1013.1 hPa SE 18.5 km/h 18.5 km/h 53 % 0.0 mm 93.0 W/m2 CLR
19:30 28.1 °C 17.6 °C 1013.1 hPa SE 22.5 km/h 22.5 km/h 53 % 0.0 mm 90.0 W/m2 CLR
19:35 28.0 °C 17.5 °C 1013.4 hPa SE 22.2 km/h 22.2 km/h 53 % 0.0 mm 84.0 W/m2 CLR
19:40 27.9 °C 17.5 °C 1013.4 hPa SSE 14.5 km/h 14.5 km/h 53 % 0.0 mm 76.0 W/m2 FEW
19:45 27.9 °C 17.5 °C 1013.4 hPa SE 9.7 km/h 9.7 km/h 53 % 0.0 mm 63.0 W/m2 FEW
19:50 27.9 °C 17.4 °C 1013.8 hPa SE 6.4 km/h 6.4 km/h 53 % 0.0 mm 54.0 W/m2 SCT
19:55 28.0 °C 17.2 °C 1013.8 hPa Calm     52 % 0.0 mm 42.0 W/m2 SCT
20:00 28.0 °C 17.2 °C 1014.1 hPa ESE 7.4 km/h 7.4 km/h 52 % 0.0 mm 32.0 W/m2 BKN
20:05 27.9 °C 17.2 °C 1014.1 hPa SE 8.0 km/h 8.0 km/h 52 % 0.0 mm 21.0 W/m2 BKN
20:10 27.9 °C 17.1 °C 1014.4 hPa Calm     52 % 0.0 mm 14.0 W/m2 BKN
20:15 27.9 °C 16.8 °C 1014.8 hPa Calm     51 % 0.0 mm 11.0 W/m2 BKN
20:20 28.0 °C 16.6 °C 1014.8 hPa South 13.0 km/h 13.0 km/h 50 % 0.0 mm 7.0 W/m2 BKN
20:25 28.0 °C 16.6 °C 1015.1 hPa Calm     50 % 0.0 mm 0.0 W/m2 BKN
20:30 28.0 °C 16.9 °C 1015.1 hPa Calm     51 % 0.0 mm 0.0 W/m2 OVC
20:35 27.9 °C 17.1 °C 1015.1 hPa SSE 3.2 km/h   52 % 0.0 mm 0.0 W/m2 OVC
20:40 27.7 °C 17.5 °C 1015.1 hPa Calm     54 % 0.0 mm 5.0 W/m2 OVC
20:45 27.2 °C 18.4 °C 1014.8 hPa ENE 16.7 km/h 16.7 km/h 59 % 0.5 mm 11.0 W/m2 RA
20:50 26.0 °C 19.2 °C 1013.8 hPa ENE 18.5 km/h 18.5 km/h 66 % 0.8 mm 19.0 W/m2 RA
20:55 24.9 °C 19.1 °C 1013.4 hPa ESE 29.6 km/h 29.6 km/h 70 % 1.3 mm 18.0 W/m2 RA
20:56 24.8 °C 18.7 °C 1013.4 hPa ESE 33.3 km/h 33.3 km/h 69 % 1.3 mm 16.0 W/m2 BKN
21:01 24.8 °C 18.5 °C 1013.4 hPa SE 20.4 km/h 20.4 km/h 68 % 1.3 mm 11.0 W/m2 BKN
21:06 25.0 °C 18.2 °C 1014.1 hPa SE 22.2 km/h 22.2 km/h 66 % 1.3 mm 9.0 W/m2 BKN
21:11 25.2 °C 18.1 °C 1013.8 hPa SE 29.6 km/h 29.6 km/h 65 % 1.3 mm 7.0 W/m2 BKN
21:16 25.3 °C 17.7 °C 1013.4 hPa SE 35.2 km/h 35.2 km/h 63 % 1.3 mm 5.0 W/m2 OVC
21:21 25.5 °C 17.4 °C 1013.1 hPa SSE 31.5 km/h 31.5 km/h 61 % 1.3 mm 5.0 W/m2 OVC
21:26 25.5 °C 17.7 °C 1013.4 hPa South 18.5 km/h 18.5 km/h 62 % 1.3 mm 12.0 W/m2 BKN
21:31 25.6 °C 17.3 °C 1013.8 hPa SE 27.8 km/h 27.8 km/h 60 % 1.3 mm 19.0 W/m2 OVC
21:36 25.6 °C 17.3 °C 1013.4 hPa SSE 27.8 km/h 27.8 km/h 60 % 1.3 mm 11.0 W/m2 OVC
21:41 25.6 °C 17.6 °C 1013.4 hPa South 27.8 km/h 27.8 km/h 61 % 1.3 mm 0.0 W/m2 CLR
21:46 25.7 °C 17.3 °C 1013.4 hPa SSE 30.6 km/h 30.6 km/h 60 % 0.5 mm 0.0 W/m2 CLR
21:51 25.7 °C 17.1 °C 1013.8 hPa SSE 24.1 km/h 24.1 km/h 59 % 0.0 mm 0.0 W/m2 CLR
21:56 25.7 °C 17.3 °C 1013.8 hPa SSE 20.4 km/h 20.4 km/h 60 % 0.0 mm 0.0 W/m2 CLR
22:01 25.7 °C 17.1 °C 1013.8 hPa South 13.0 km/h 13.0 km/h 59 % 0.0 mm 0.0 W/m2 CLR
22:06 25.7 °C 16.6 °C 1013.8 hPa SSE 14.8 km/h 14.8 km/h 57 % 0.0 mm 0.0 W/m2 CLR
22:11 25.9 °C 16.7 °C 1013.8 hPa SE 16.7 km/h 16.7 km/h 57 % 0.0 mm 0.0 W/m2 CLR
22:16 25.9 °C 15.9 °C 1014.1 hPa SSE 22.2 km/h 22.2 km/h 54 % 0.0 mm 0.0 W/m2 CLR
22:21 26.1 °C 15.8 °C 1014.1 hPa SSE 16.7 km/h 16.7 km/h 53 % 0.0 mm 0.0 W/m2 CLR
22:26 26.3 °C 15.1 °C 1014.1 hPa South 19.3 km/h 19.3 km/h 50 % 0.0 mm 0.0 W/m2 CLR
22:31 26.5 °C 14.9 °C 1014.1 hPa SSE 20.4 km/h 20.4 km/h 49 % 0.0 mm 0.0 W/m2 CLR
22:36 26.6 °C 14.9 °C 1014.1 hPa SSE 20.9 km/h 20.9 km/h 49 % 0.0 mm 0.0 W/m2 CLR
22:41 26.5 °C 14.9 °C 1014.4 hPa South 18.5 km/h 18.5 km/h 49 % 0.0 mm 0.0 W/m2 CLR
22:46 26.4 °C 14.8 °C 1014.4 hPa SSE 14.8 km/h 14.8 km/h 49 % 0.0 mm 0.0 W/m2 CLR
22:47 26.3 °C 15.1 °C 1014.4 hPa SE 17.7 km/h 17.7 km/h 50 % 0.0 mm 0.0 W/m2 CLR
22:52 26.4 °C 15.1 °C 1014.8 hPa SSW 18.5 km/h 18.5 km/h 50 % 0.0 mm 0.0 W/m2 CLR
22:57 26.3 °C 15.1 °C 1014.8 hPa SSE 11.1 km/h 11.1 km/h 50 % 0.0 mm 0.0 W/m2 CLR
23:02 26.3 °C 15.0 °C 1014.8 hPa SE 11.3 km/h 11.3 km/h 50 % 0.0 mm 0.0 W/m2 CLR
23:07 26.1 °C 14.9 °C 1014.8 hPa SSE 9.7 km/h 9.7 km/h 50 % 0.0 mm 0.0 W/m2 CLR
23:12 26.0 °C 15.1 °C 1014.8 hPa Calm     51 % 0.0 mm 0.0 W/m2 CLR
23:17 25.8 °C 14.6 °C 1014.8 hPa Calm     50 % 0.0 mm 0.0 W/m2 CLR
23:22 25.7 °C 15.1 °C 1015.1 hPa Calm     52 % 0.0 mm 0.0 W/m2 CLR
23:27 25.6 °C 14.7 °C 1015.1 hPa SE 7.4 km/h 7.4 km/h 51 % 0.0 mm 0.0 W/m2 CLR
23:32 25.5 °C 14.6 °C 1015.1 hPa Calm     51 % 0.0 mm 0.0 W/m2 CLR
23:37 25.4 °C 15.2 °C 1015.1 hPa Calm     53 % 0.0 mm 0.0 W/m2 CLR
23:42 25.1 °C 15.2 °C 1015.1 hPa Calm     54 % 0.0 mm 0.0 W/m2 CLR
23:47 24.9 °C 14.7 °C 1015.1 hPa Calm     53 % 0.0 mm 0.0 W/m2 CLR
23:52 24.9 °C 14.7 °C 1015.1 hPa Calm     53 % 0.0 mm 0.0 W/m2 CLR
23:57 24.9 °C 14.7 °C 1015.1 hPa Calm     53 % 0.0 mm 0.0 W/m2 CLR
Lo Temps de Massalio
Compliments of Weather Underground - 1.25 mb